TimePST,TemperatureF,Dew PointF,Humidity,Sea Level PressureIn,VisibilityMPH,Wind Direction,Wind SpeedMPH,Gust SpeedMPH,PrecipitationIn,Events,Conditions,WindDirDegrees,DateUTC
12:53 AM,37.0,28.9,73,29.84,-9999.0,SSW,4.6,-,N/A,,Unknown,200,2013-11-20 08:53:00
1:53 AM,35.1,27.0,72,29.85,-9999.0,West,3.5,-,N/A,,Unknown,260,2013-11-20 09:53:00
2:53 AM,35.1,27.0,72,29.82,-9999.0,SW,5.8,-,N/A,,Unknown,220,2013-11-20 10:53:00
3:53 AM,36.0,28.0,73,29.81,-9999.0,SSW,4.6,-,N/A,,Unknown,200,2013-11-20 11:53:00
4:53 AM,37.0,28.0,70,29.82,-9999.0,SW,5.8,-,N/A,,Unknown,220,2013-11-20 12:53:00
5:53 AM,36.0,28.0,73,29.85,-9999.0,SW,9.2,-,N/A,,Unknown,220,2013-11-20 13:53:00
6:53 AM,37.0,30.9,79,29.88,-9999.0,SW,6.9,-,N/A,,Unknown,220,2013-11-20 14:53:00
7:53 AM,37.9,35.1,89,29.89,-9999.0,WSW,3.5,-,0.01,,Unknown,240,2013-11-20 15:53:00
8:53 AM,37.9,35.1,89,29.90,-9999.0,ENE,4.6,-,0.06,,Unknown,60,2013-11-20 16:53:00
9:53 AM,39.0,37.0,93,29.88,-9999.0,SW,4.6,-,0.01,,Unknown,220,2013-11-20 17:53:00
10:53 AM,41.0,35.1,79,29.85,-9999.0,SE,3.5,-,N/A,,Unknown,130,2013-11-20 18:53:00
11:53 AM,45.0,37.0,74,29.79,-9999.0,Calm,Calm,-,N/A,,Unknown,0,2013-11-20 19:53:00
12:53 PM,45.0,37.0,74,29.77,-9999.0,NNE,6.9,-,N/A,,Unknown,30,2013-11-20 20:53:00
1:53 PM,43.0,37.9,82,29.78,-9999.0,SSW,4.6,-,0.03,,Unknown,210,2013-11-20 21:53:00
2:53 PM,42.1,37.9,85,29.79,-9999.0,ENE,6.9,-,0.01,,Unknown,70,2013-11-20 22:53:00
3:53 PM,42.1,37.9,85,29.80,-9999.0,Calm,Calm,-,N/A,,Unknown,0,2013-11-20 23:53:00
4:53 PM,39.9,37.0,89,29.81,-9999.0,South,4.6,-,0.04,,Unknown,190,2013-11-21 00:53:00
5:53 PM,35.1,33.1,92,29.82,-9999.0,WSW,3.5,-,N/A,,Unknown,240,2013-11-21 01:53:00
6:53 PM,34.0,32.0,92,29.83,-9999.0,SSE,3.5,-,N/A,,Unknown,160,2013-11-21 02:53:00
7:53 PM,33.1,30.9,92,29.83,-9999.0,Calm,Calm,-,N/A,,Unknown,0,2013-11-21 03:53:00
8:53 PM,35.1,32.0,89,29.83,-9999.0,ESE,3.5,-,N/A,,Unknown,120,2013-11-21 04:53:00
9:53 PM,34.0,33.1,96,29.82,-9999.0,Calm,Calm,-,N/A,,Unknown,0,2013-11-21 05:53:00
10:53 PM,33.1,32.0,96,29.82,-9999.0,North,3.5,-,N/A,,Unknown,350,2013-11-21 06:53:00
11:53 PM,33.1,30.9,92,29.81,-9999.0,Calm,Calm,-,N/A,,Unknown,0,2013-11-21 07:53:00